Location: *
(43.4667°N, 11.6833°E)
Time: 20:21:01
(UTC+00:00)

Mayak - Pass Details

Date: 19 July 2019
Orbit: 583 x 601 km, 97.6° (Epoch: 19 August)

Event Time Altitude Azimuth Distance (km) Brightness Sun altitude
Rises 20:54:26 0° 29° (NNE) 2,861 2.6 -17.6°
Reaches altitude 10° 20:57:14 10° 48° (NE) 1,952 1.5 -17.9°
Enters shadow 20:59:47 18° 85° (E) 1,507 0.6 -18.2°
